• In Deutschland
  • Länderverzeichnis
  • Für 7 Tage
  • Wassertemperatur
  • Satellitenkarten
  • Wetterkarte
  • Widgets
  • user-avatar
    Anmelden

    Stündliche Wetter Pocitelj

    Heute, 17 August, Freitag

    Zeit Temperatur Niederschläge Wind Luftdruck Luftfeuchtigkeit
    00:00 +21°C° 0 mm 2 m/S 747 mmHg 81%
    01:00 +21°C° 0 mm 3 m/S 747 mmHg 82%
    02:00 +21°C° 0 mm 2 m/S 747 mmHg 82%
    03:00 +21°C° 0 mm 2 m/S 747 mmHg 82%
    04:00 +20°C° 0 mm 2 m/S 747 mmHg 82%
    05:00 +23°C° 0 mm 2 m/S 747 mmHg 79%
    06:00 +24°C° 0 mm 2 m/S 747 mmHg 76%
    07:00 +25°C° 0 mm 2 m/S 747 mmHg 73%
    08:00 +27°C° 0 mm 1 m/S 747 mmHg 65%
    09:00 +29°C° 0 mm 1 m/S 747 mmHg 56%
    10:00 +29°C° 0 mm 0 m/S 747 mmHg 48%
    11:00 +31°C° 0,1 mm 1 m/S 747 mmHg 47%
    12:00 +32°C° 0,1 mm 2 m/S 747 mmHg 46%
    13:00 +32°C° 0,1 mm 2 m/S 747 mmHg 46%
    14:00 +32°C° 0,2 mm 2 m/S 747 mmHg 48%
    15:00 +31°C° 0,2 mm 2 m/S 746 mmHg 51%
    16:00 +31°C° 0,2 mm 2 m/S 746 mmHg 54%
    17:00 +29°C° 0,3 mm 2 m/S 746 mmHg 60%
    18:00 +27°C° 0,3 mm 2 m/S 746 mmHg 66%
    19:00 +26°C° 0,3 mm 1 m/S 746 mmHg 72%
    20:00 +25°C° 0,2 mm 1 m/S 747 mmHg 74%
    21:00 +25°C° 0,2 mm 1 m/S 747 mmHg 75%
    22:00 +24°C° 0,2 mm 1 m/S 747 mmHg 77%
    23:00 +24°C° 0,1 mm 2 m/S 748 mmHg 77%

    Morgen, 18 August, Samstag

    Zeit Temperatur Niederschläge Wind Luftdruck Luftfeuchtigkeit
    00:00 +24°C° 0,1 mm 2 m/S 748 mmHg 77%
    01:00 +23°C° 0,1 mm 2 m/S 748 mmHg 78%
    02:00 +23°C° 0,1 mm 2 m/S 748 mmHg 77%
    03:00 +23°C° 0,1 mm 2 m/S 748 mmHg 77%
    04:00 +21°C° 0,1 mm 2 m/S 748 mmHg 77%
    05:00 +24°C° 0 mm 2 m/S 748 mmHg 74%
    06:00 +25°C° 0 mm 1 m/S 748 mmHg 71%
    07:00 +26°C° 0 mm 1 m/S 748 mmHg 68%
    08:00 +28°C° 0 mm 1 m/S 748 mmHg 61%
    09:00 +30°C° 0 mm 1 m/S 748 mmHg 54%
    10:00 +32°C° 0 mm 1 m/S 748 mmHg 46%
    11:00 +32°C° 0 mm 1 m/S 748 mmHg 46%
    12:00 +34°C° 0 mm 2 m/S 748 mmHg 45%
    13:00 +34°C° 0 mm 2 m/S 748 mmHg 44%
    14:00 +34°C° 0,1 mm 2 m/S 748 mmHg 47%
    15:00 +32°C° 0,1 mm 2 m/S 748 mmHg 51%
    16:00 +31°C° 0,1 mm 2 m/S 748 mmHg 54%
    17:00 +30°C° 0,5 mm 2 m/S 748 mmHg 60%
    18:00 +28°C° 0,5 mm 2 m/S 748 mmHg 65%
    19:00 +27°C° 0,5 mm 2 m/S 748 mmHg 70%
    20:00 +26°C° 0,5 mm 2 m/S 748 mmHg 72%
    21:00 +26°C° 0,5 mm 2 m/S 748 mmHg 74%
    22:00 +25°C° 0,5 mm 2 m/S 749 mmHg 75%
    23:00 +25°C° 0,4 mm 2 m/S 749 mmHg 76%

    übermorgen, 19 August, Sonntag

    Zeit Temperatur Niederschläge Wind Luftdruck Luftfeuchtigkeit
    00:00 +24°C° 0,4 mm 2 m/S 749 mmHg 77%
    01:00 +24°C° 0,4 mm 2 m/S 748 mmHg 78%
    02:00 +24°C° 0,2 mm 2 m/S 748 mmHg 78%
    03:00 +23°C° 0,2 mm 2 m/S 748 mmHg 78%
    04:00 +23°C° 0,2 mm 2 m/S 748 mmHg 78%
    05:00 +24°C° 0,1 mm 2 m/S 748 mmHg 76%
    06:00 +25°C° 0,1 mm 2 m/S 748 mmHg 74%
    07:00 +26°C° 0,1 mm 2 m/S 748 mmHg 72%
    08:00 +28°C° 0,2 mm 2 m/S 748 mmHg 64%
    09:00 +30°C° 0,2 mm 2 m/S 748 mmHg 56%
    10:00 +32°C° 0,2 mm 2 m/S 748 mmHg 48%
    11:00 +34°C° 0 mm 2 m/S 748 mmHg 46%
    12:00 +34°C° 0 mm 2 m/S 748 mmHg 43%
    13:00 +35°C° 0 mm 2 m/S 748 mmHg 41%
    14:00 +34°C° 0,1 mm 2 m/S 748 mmHg 44%
    15:00 +34°C° 0,1 mm 2 m/S 747 mmHg 48%
    16:00 +33°C° 0,1 mm 3 m/S 747 mmHg 51%
    17:00 +30°C° 0,1 mm 3 m/S 747 mmHg 56%
    18:00 +29°C° 0,1 mm 3 m/S 747 mmHg 60%
    19:00 +27°C° 0,1 mm 3 m/S 747 mmHg 65%
    20:00 +26°C° 0,1 mm 3 m/S 747 mmHg 66%
    21:00 +26°C° 0,1 mm 3 m/S 748 mmHg 68%
    22:00 +25°C° 0,1 mm 3 m/S 748 mmHg 70%
    23:00 +24°C° 0,1 mm 3 m/S 748 mmHg 71%

    20 August, Montag

    Zeit Temperatur Niederschläge Wind Luftdruck Luftfeuchtigkeit
    00:00 +24°C° 0,1 mm 3 m/S 747 mmHg 72%
    01:00 +22°C° 0,1 mm 3 m/S 747 mmHg 74%
    02:00 +22°C° 0,1 mm 3 m/S 747 mmHg 74%
    03:00 +22°C° 0,1 mm 3 m/S 747 mmHg 75%
    04:00 +22°C° 0,1 mm 3 m/S 747 mmHg 75%
    05:00 +24°C° 0 mm 3 m/S 747 mmHg 73%
    06:00 +25°C° 0 mm 3 m/S 747 mmHg 70%
    07:00 +25°C° 0 mm 3 m/S 747 mmHg 67%
    08:00 +27°C° 0 mm 3 m/S 747 mmHg 61%
    09:00 +29°C° 0 mm 3 m/S 747 mmHg 54%
    10:00 +31°C° 0 mm 3 m/S 747 mmHg 47%
    11:00 +33°C° 0 mm 3 m/S 747 mmHg 45%
    12:00 +34°C° 0 mm 3 m/S 747 mmHg 43%
    13:00 +34°C° 0 mm 2 m/S 747 mmHg 41%
    14:00 +34°C° 0,1 mm 2 m/S 747 mmHg 45%
    15:00 +32°C° 0,1 mm 2 m/S 747 mmHg 49%
    16:00 +31°C° 0,1 mm 2 m/S 747 mmHg 54%
    17:00 +29°C° 0,1 mm 2 m/S 747 mmHg 57%
    18:00 +28°C° 0,1 mm 2 m/S 747 mmHg 60%
    19:00 +27°C° 0,1 mm 2 m/S 747 mmHg 64%
    20:00 +26°C° 0,3 mm 2 m/S 747 mmHg 66%
    21:00 +25°C° 0,3 mm 3 m/S 747 mmHg 68%
    22:00 +24°C° 0,3 mm 3 m/S 747 mmHg 71%
    23:00 +24°C° 0 mm 3 m/S 747 mmHg 71%

    21 August, Dienstag

    Zeit Temperatur Niederschläge Wind Luftdruck Luftfeuchtigkeit
    00:00 +24°C° 0 mm 3 m/S 747 mmHg 71%
    01:00 +22°C° 0 mm 3 m/S 747 mmHg 71%
    02:00 +22°C° 0 mm 3 m/S 747 mmHg 71%
    03:00 +23°C° 0 mm 2 m/S 747 mmHg 72%
    04:00 +23°C° 0 mm 2 m/S 747 mmHg 72%
    05:00 +24°C° 0 mm 2 m/S 747 mmHg 70%
    06:00 +25°C° 0 mm 2 m/S 747 mmHg 67%
    07:00 +26°C° 0 mm 2 m/S 748 mmHg 65%
    08:00 +28°C° 0 mm 2 m/S 748 mmHg 58%
    09:00 +30°C° 0 mm 2 m/S 748 mmHg 51%
    10:00 +32°C° 0 mm 1 m/S 748 mmHg 44%
    11:00 +34°C° 0 mm 2 m/S 748 mmHg 43%
    12:00 +35°C° 0 mm 2 m/S 748 mmHg 41%
    13:00 +35°C° 0 mm 2 m/S 747 mmHg 39%
    14:00 +35°C° 0 mm 2 m/S 747 mmHg 42%
    15:00 +34°C° 0 mm 2 m/S 747 mmHg 45%
    16:00 +34°C° 0 mm 3 m/S 747 mmHg 47%
    17:00 +31°C° 0 mm 2 m/S 747 mmHg 52%
    18:00 +29°C° 0 mm 2 m/S 747 mmHg 58%
    19:00 +28°C° 0 mm 2 m/S 747 mmHg 63%
    20:00 +27°C° 0 mm 2 m/S 748 mmHg 65%
    21:00 +26°C° 0 mm 2 m/S 748 mmHg 66%
    22:00 +25°C° 0 mm 2 m/S 748 mmHg 68%
    23:00 +25°C° 0 mm 2 m/S 748 mmHg 69%

    22 August, Mittwoch

    Zeit Temperatur Niederschläge Wind Luftdruck Luftfeuchtigkeit
    00:00 +24°C° 0 mm 2 m/S 748 mmHg 69%
    01:00 +24°C° 0 mm 2 m/S 748 mmHg 70%
    02:00 +24°C° 0,1 mm 2 m/S 748 mmHg 70%
    03:00 +23°C° 0,1 mm 2 m/S 748 mmHg 71%
    04:00 +23°C° 0,1 mm 2 m/S 748 mmHg 71%
    05:00 +24°C° 0 mm 2 m/S 748 mmHg 69%
    06:00 +25°C° 0 mm 2 m/S 748 mmHg 67%
    07:00 +26°C° 0 mm 2 m/S 748 mmHg 65%
    08:00 +28°C° 0 mm 2 m/S 748 mmHg 56%
    09:00 +30°C° 0 mm 2 m/S 748 mmHg 48%
    10:00 +32°C° 0 mm 1 m/S 748 mmHg 39%
    11:00 +34°C° 0 mm 2 m/S 748 mmHg 37%
    12:00 +34°C° 0 mm 2 m/S 748 mmHg 36%
    13:00 +35°C° 0 mm 2 m/S 747 mmHg 34%
    14:00 +34°C° 0 mm 2 m/S 747 mmHg 36%
    15:00 +34°C° 0 mm 2 m/S 747 mmHg 38%
    16:00 +34°C° 0 mm 2 m/S 747 mmHg 40%
    17:00 +30°C° 0 mm 1 m/S 747 mmHg 48%
    18:00 +28°C° 0 mm 1 m/S 747 mmHg 55%
    19:00 +26°C° 0 mm 1 m/S 747 mmHg 63%
    20:00 +25°C° 0 mm 1 m/S 747 mmHg 62%
    21:00 +25°C° 0 mm 1 m/S 748 mmHg 61%
    22:00 +24°C° 0 mm 2 m/S 748 mmHg 60%
    23:00 +24°C° 0 mm 2 m/S 748 mmHg 57%
    Mehr zeigen